Flag for Slovenia Weather past 2 weeks in Ljubljana, Slovenia

Now
89 °F

Passing clouds.


Feels Like: 89 °F
Forecast: 65 / 93 °F
Wind: 1 mph from South

Location: Ljubljana / Bezigrad

Current Time: Jul 5, 2015 at 3:44:15 PM

Latest Report: Jul 5, 2015 at 3:00 PM


Visibility: 16 mi

Pressure: 30.03 "Hg

Humidity: 40%

Dew point: 62 °F

Location of LjubljanaLocation

Historic Weather in Ljubljana — Graph

°F

Ljubljana temperature yesterday

Maximum temperature yesterday: 88 °F (at 5:00 PM)
Minimum temperature yesterday: 69 °F (at 6:00 AM)
Average temperature yesterday: 79 °F

Past Weeks' High & Low Weather Summary

 TemperatureHumidityPressure
High90 °F (Jul 2, 5:00 PM)100% (Jun 23, 8:00 PM)30.29 "Hg (Jun 23, 8:00 PM)
Low48 °F (Jun 25, 6:00 AM)34% (Jun 25, 5:00 PM)29.77 "Hg (Jun 23, 9:00 AM)
Average68 °F69%30.11 "Hg
* Reported Jun 20 2:00 PM — Jul 5 2:00 PM, Ljubljana, Weather by CustomWeather, © 2015

Note: Actual official high and low records may vary slightly from our data, if they occured in-between our weather recording intervals... More about our weather records

Advertising

Ljubljana weather history for previous 24 hours

 ConditionsComfort  
Time TempWeatherWind HumidityBarometerVisibility
2:00 PM
Sun, Jul 5
88 °FPassing clouds.2 mph45%30.06 "Hg16 mi
1:00 PM86 °FPassing clouds.3 mph47%30.07 "Hg16 mi
12:00 PM84 °FPassing clouds.2 mph47%30.09 "Hg16 mi
11:00 AM82 °FPassing clouds.1 mph52%30.10 "Hg16 mi
10:00 AM79 °FPassing clouds.No wind62%30.12 "Hg16 mi
9:00 AM75 °FPassing clouds.No wind69%30.14 "Hg16 mi
8:00 AM71 °FPassing clouds.No wind78%30.14 "Hg6 mi
7:00 AM69 °FPassing clouds.No wind82%30.15 "Hg6 mi
6:00 AM67 °FPassing clouds.No wind87%30.15 "Hg6 mi
5:00 AM68 °FMild.No wind86%30.14 "HgN/A
4:00 AM69 °FMild.No wind84%30.14 "HgN/A
3:00 AM70 °FMild.No wind83%30.15 "HgN/A
2:00 AM72 °FMild.No wind77%30.15 "HgN/A
1:00 AM73 °FMild.No wind75%30.15 "HgN/A
12:00 AM75 °FMild.No wind72%30.15 "HgN/A
11:00 PM
Sat, Jul 4
76 °FMild.1 mph69%30.15 "HgN/A
10:00 PM79 °FPassing clouds.No wind58%30.14 "Hg19 mi
9:00 PM81 °FPassing clouds.1 mph56%30.12 "Hg19 mi
8:00 PM83 °FPassing clouds.1 mph51%30.11 "Hg19 mi
7:00 PM85 °FWarm.2 mph49%30.10 "HgN/A
6:00 PM87 °FWarm.2 mph46%30.11 "HgN/A
5:00 PM88 °FWarm.2 mph44%30.11 "HgN/A
4:00 PM87 °FWarm.1 mph44%30.13 "HgN/A
3:00 PM88 °FPassing clouds.2 mph44%30.14 "Hg19 mi
Weather by CustomWeather, © 2015

See weather overviewHow to use our weather pages